GW1622 Weather Reports


Display with metric or nautical units.
time (UTC)temp
F
wind
direction
speed
MPH
gust
MPH
rain 1hr
in
rain 24hr
in
rain mn
in
humidity
%
barometer
mb
20260903182520 75 99 1.0 8.0 0.00 0.00 0.00 73 1015.3
20260903182021 75 115 3.0 8.0 0.00 0.00 0.00 72 1015.2
20260903181539 74 115 2.0 7.0 0.00 0.00 0.00 72 1015.2
20260903181023 75 0 1.0 7.0 0.00 0.00 0.00 72 1015.2
20260903180519 75 95 1.0 7.0 0.00 0.00 0.00 73 1015.3
20260903180042 75 67 2.0 7.0 0.00 0.00 0.00 72 1015.3
20260903175519 74 115 3.0 7.0 0.00 0.00 0.00 73 1015.3
20260903175016 75 136 1.0 6.0 0.00 0.00 0.00 72 1015.4
20260903174556 74 119 2.0 5.0 0.00 0.00 0.00 74 1015.3
20260903174021 74 107 2.0 6.0 0.00 0.00 0.00 73 1015.4
20260903173517 74 63 2.0 7.0 0.00 0.00 0.00 73 1015.4
20260903173039 74 192 2.0 7.0 0.00 0.00 0.00 72 1015.4
20260903172518 74 103 1.0 6.0 0.00 0.00 0.00 74 1015.2
20260903172021 74 73 1.0 6.0 0.00 0.00 0.00 72 1015.3
20260903171541 73 77 1.0 6.0 0.00 0.00 0.00 73 1015.2
20260903171018 74 172 1.0 4.0 0.00 0.00 0.00 73 1015.3
20260903170519 73 96 1.0 5.0 0.00 0.00 0.00 73 1015.3
20260903170103 72 0 2.0 5.0 0.00 0.00 0.00 75 1015.2
20260903165522 72 21 2.0 5.0 0.00 0.00 0.00 73 1015.3
20260903165020 73 142 1.0 4.0 0.00 0.00 0.00 74 1015.3
20260903164547 72 69 1.0 4.0 0.00 0.00 0.00 75 1015.2
20260903164020 73 24 1.0 4.0 0.00 0.00 0.00 74 1015.2
20260903163523 72 41 1.0 4.0 0.00 0.00 0.00 75 1015.2
20260903163038 72 70 1.0 4.0 0.00 0.00 0.00 75 1015.3
20260903162518 71 0 0.0 5.0 0.00 0.00 0.00 76 1015.2
20260903162017 72 146 0.0 5.0 0.00 0.00 0.00 77 1015.3
20260903161539 71 16 1.0 3.0 0.00 0.00 0.00 76 1015.3
20260903161024 71 0 0.0 3.0 0.00 0.00 0.00 78 1015.3
20260903160521 71 0 0.0 3.0 0.00 0.00 0.00 79 1015.3
20260903160041 70 352 1.0 3.0 0.00 0.00 0.00 79 1015.5
20260903155520 69 135 0.0 3.0 0.00 0.00 0.00 81 1015.5
20260903155017 69 325 1.0 3.0 0.00 0.00 0.00 82 1015.5
20260903154541 68 32 1.0 3.0 0.00 0.00 0.00 82 1015.6
20260903154020 67 19 1.0 3.0 0.00 0.00 0.00 84 1015.6
20260903153520 66 10 1.0 3.0 0.00 0.00 0.00 85 1015.6
20260903153045 66 360 1.0 3.0 0.00 0.00 0.00 86 1015.6
20260903152522 65 5 1.0 3.0 0.00 0.00 0.00 87 1015.5
20260903152022 64 360 1.0 3.0 0.00 0.00 0.00 88 1015.5
20260903151547 64 9 1.0 3.0 0.00 0.00 0.00 88 1015.7
20260903151017 63 23 1.0 3.0 0.00 0.00 0.00 89 1015.7
20260903150519 63 0 0.0 2.0 0.00 0.00 0.00 89 1015.6
20260903150037 63 17 0.0 2.0 0.00 0.00 0.00 90 1015.7
20260903145523 62 0 0.0 2.0 0.00 0.00 0.00 90 1015.7
20260903145026 62 342 0.0 2.0 0.00 0.00 0.00 90 1015.5
20260903144545 62 0 0.0 2.0 0.00 0.00 0.00 90 1015.5
20260903144019 62 0 0.0 3.0 0.00 0.00 0.00 91 1015.5
20260903143518 61 342 1.0 3.0 0.00 0.00 0.00 91 1015.5
20260903143042 61 342 0.0 2.0 0.00 0.00 0.00 91 1015.3
20260903142520 61 342 0.0 2.0 0.00 0.00 0.00 91 1015.4
20260903142021 60 0 0.0 1.0 0.00 0.00 0.00 91 1015.3
20260903141542 60 0 0.0 1.0 0.00 0.00 0.00 91 1015.2
20260903141017 60 0 0.0 0.0 0.00 0.00 0.00 91 1015.2
20260903140517 60 0 0.0 0.0 0.00 0.00 0.00 91 1015.1
20260903140042 60 0 0.0 0.0 0.00 0.00 0.00 91 1015.0
20260903135520 60 0 0.0 0.0 0.00 0.00 0.00 91 1015.0
20260903135020 60 0 0.0 0.0 0.00 0.00 0.00 91 1014.9
20260903134543 60 0 0.0 0.0 0.00 0.00 0.00 91 1014.8
20260903134022 60 0 0.0 0.0 0.00 0.00 0.00 90 1014.7
20260903133524 60 0 0.0 1.0 0.00 0.00 0.00 90 1014.7
20260903133050 61 0 0.0 2.0 0.00 0.00 0.00 90 1014.7
20260903132517 61 0 0.0 2.0 0.00 0.00 0.00 91 1014.7
20260903132020 61 0 0.0 2.0 0.00 0.00 0.00 91 1014.6
20260903131551 61 0 0.0 2.0 0.00 0.00 0.00 91 1014.6
20260903131020 61 0 0.0 2.0 0.00 0.00 0.00 91 1014.7
20260903130518 61 0 0.0 2.0 0.00 0.00 0.00 91 1014.6
20260903130044 61 206 0.0 1.0 0.00 0.00 0.00 91 1014.7
20260903125520 61 0 0.0 1.0 0.00 0.00 0.00 91 1014.7
20260903125018 61 0 0.0 1.0 0.00 0.00 0.00 91 1014.7
20260903124541 61 0 0.0 1.0 0.00 0.00 0.00 91 1014.7
20260903124018 61 206 0.0 1.0 0.00 0.00 0.00 91 1014.6
20260903123518 61 0 0.0 1.0 0.00 0.00 0.00 91 1014.6
20260903123042 61 0 0.0 1.0 0.00 0.00 0.00 91 1014.6
20260903122521 61 0 0.0 2.0 0.00 0.00 0.00 92 1014.6
20260903122019 61 265 0.0 2.0 0.00 0.00 0.00 92 1014.5
20260903121544 61 0 0.0 2.0 0.00 0.00 0.00 92 1014.5
20260903121020 61 265 0.0 1.0 0.00 0.00 0.00 92 1014.6
20260903120520 61 0 0.0 1.0 0.00 0.00 0.00 92 1014.6
20260903120043 61 0 0.0 1.0 0.00 0.00 0.00 92 1014.5
20260903115524 61 0 0.0 1.0 0.00 0.00 0.00 92 1014.5
20260903115020 61 0 0.0 1.0 0.00 0.00 0.00 92 1014.6
20260903114541 61 0 0.0 1.0 0.00 0.00 0.00 92 1014.7
20260903114019 61 0 0.0 1.0 0.00 0.00 0.00 92 1014.7
20260903113519 60 0 0.0 1.0 0.00 0.00 0.00 92 1014.8
20260903113040 60 0 0.0 0.0 0.00 0.00 0.00 92 1014.9
20260903112518 60 0 0.0 1.0 0.00 0.00 0.00 92 1014.7
20260903112020 60 0 0.0 1.0 0.00 0.00 0.00 92 1014.7
20260903111614 60 0 0.0 1.0 0.00 0.00 0.00 92 1014.6
20260903111017 60 0 0.0 0.0 0.00 0.00 0.00 92 1014.6
20260903110519 60 0 0.0 1.0 0.00 0.00 0.00 92 1014.7
20260903110042 61 0 0.0 1.0 0.00 0.00 0.00 92 1014.7
20260903105526 61 0 0.0 0.0 0.00 0.00 0.00 92 1014.7
20260903105020 61 0 0.0 0.0 0.00 0.00 0.00 92 1014.7
20260903104552 61 0 0.0 0.0 0.00 0.00 0.00 92 1014.7
20260903104019 61 0 0.0 0.0 0.00 0.00 0.00 92 1014.7
20260903103520 61 0 0.0 0.0 0.00 0.00 0.00 92 1014.7
20260903103036 61 0 0.0 0.0 0.00 0.00 0.00 92 1014.8
20260903102521 61 0 0.0 0.0 0.00 0.00 0.00 91 1014.8
20260903102021 61 0 0.0 0.0 0.00 0.00 0.00 92 1014.9
20260903101543 61 0 0.0 0.0 0.00 0.00 0.00 91 1015.0
20260903101019 61 0 0.0 0.0 0.00 0.00 0.00 92 1014.9
20260903100519 61 0 0.0 0.0 0.00 0.00 0.00 91 1015.1
20260903100036 62 0 0.0 0.0 0.00 0.00 0.00 91 1015.1
20260903095519 62 0 0.0 0.0 0.00 0.00 0.00 92 1015.1
20260903095016 61 0 0.0 0.0 0.00 0.00 0.00 92 1015.1
20260903094540 61 0 0.0 0.0 0.00 0.00 0.00 91 1015.1
20260903094016 61 0 0.0 0.0 0.00 0.00 0.00 91 1015.1
20260903093522 61 0 0.0 1.0 0.00 0.00 0.00 91 1015.1
20260903093041 61 0 0.0 1.0 0.00 0.00 0.00 91 1015.2
20260903092520 61 0 0.0 0.0 0.00 0.00 0.00 91 1015.3
20260903092019 62 0 0.0 0.0 0.00 0.00 0.00 91 1015.3
20260903091538 62 0 0.0 0.0 0.00 0.00 0.00 91 1015.3
20260903091017 62 0 0.0 0.0 0.00 0.00 0.00 91 1015.3
20260903090517 62 0 0.0 0.0 0.00 0.00 0.00 91 1015.4
20260903090042 62 0 0.0 0.0 0.00 0.00 0.00 91 1015.3
20260903085519 62 0 0.0 0.0 0.00 0.00 0.00 91 1015.4
20260903085019 62 0 0.0 0.0 0.00 0.00 0.00 91 1015.5
20260903084539 62 0 0.0 0.0 0.00 0.00 0.00 91 1015.7
20260903084018 62 0 0.0 0.0 0.00 0.00 0.00 90 1015.5
20260903083519 62 0 0.0 0.0 0.00 0.00 0.00 90 1015.6
20260903083039 62 0 0.0 0.0 0.00 0.00 0.00 91 1015.6
20260903082518 62 0 0.0 0.0 0.00 0.00 0.00 91 1015.6
20260903082020 62 0 0.0 0.0 0.00 0.00 0.00 90 1015.5
20260903081535 62 0 0.0 0.0 0.00 0.00 0.00 90 1015.6
20260903081020 62 0 0.0 0.0 0.00 0.00 0.00 90 1015.6
20260903080517 62 0 0.0 0.0 0.00 0.00 0.00 90 1015.6
20260903080042 62 0 0.0 0.0 0.00 0.00 0.00 90 1015.7
20260903075520 62 0 0.0 0.0 0.00 0.00 0.00 90 1015.7
20260903075019 63 0 0.0 0.0 0.00 0.00 0.00 90 1015.8
20260903074542 63 0 0.0 0.0 0.00 0.00 0.00 90 1015.8
20260903074020 63 0 0.0 0.0 0.00 0.00 0.00 90 1015.8
20260903073522 63 0 0.0 0.0 0.00 0.00 0.00 90 1015.8
20260903073046 63 0 0.0 0.0 0.00 0.00 0.00 89 1015.8
20260903072517 63 0 0.0 0.0 0.00 0.00 0.00 89 1015.8
20260903072020 63 0 0.0 0.0 0.00 0.00 0.00 89 1015.8
20260903071539 63 0 0.0 0.0 0.00 0.00 0.00 89 1015.8
20260903071020 63 0 0.0 0.0 0.00 0.00 0.00 89 1015.8
20260903070521 64 0 0.0 0.0 0.00 0.00 0.00 89 1015.7
20260903070044 64 0 0.0 0.0 0.00 0.00 0.00 88 1015.7
20260903065519 64 0 0.0 0.0 0.00 0.00 0.00 88 1015.8
20260903065020 64 0 0.0 0.0 0.00 0.00 0.00 89 1015.7
20260903064544 64 0 0.0 0.0 0.00 0.00 0.00 89 1015.8
20260903064021 64 0 0.0 0.0 0.00 0.00 0.00 89 1015.8
20260903063521 64 0 0.0 0.0 0.00 0.00 0.00 88 1015.7
20260903063039 64 0 0.0 0.0 0.00 0.00 0.00 88 1015.8
20260903062520 64 0 0.0 0.0 0.00 0.00 0.00 88 1015.8
20260903062024 64 0 0.0 0.0 0.00 0.00 0.00 88 1015.8
20260903061556 64 0 0.0 0.0 0.00 0.00 0.00 88 1015.8
20260903061019 64 0 0.0 0.0 0.00 0.00 0.00 87 1015.8
20260903060518 65 0 0.0 0.0 0.00 0.00 0.00 87 1015.9
20260903060042 65 0 0.0 0.0 0.00 0.00 0.00 87 1015.8
20260903055518 65 0 0.0 0.0 0.00 0.00 0.00 87 1015.8
20260903055017 65 0 0.0 0.0 0.00 0.00 0.00 87 1015.9
20260903054541 65 0 0.0 0.0 0.00 0.00 0.00 87 1016.0
20260903054020 65 0 0.0 0.0 0.00 0.00 0.00 87 1016.1
20260903053520 65 0 0.0 0.0 0.00 0.00 0.00 87 1016.0
20260903053046 65 0 0.0 0.0 0.00 0.00 0.00 87 1016.1
20260903052520 65 0 0.0 0.0 0.00 0.00 0.00 87 1016.1
20260903052023 65 0 0.0 0.0 0.00 0.00 0.00 86 1016.2
20260903051541 66 0 0.0 0.0 0.00 0.00 0.00 86 1016.1
20260903051018 66 0 0.0 0.0 0.00 0.00 0.00 86 1016.0
20260903050520 66 0 0.0 0.0 0.00 0.00 0.00 86 1016.0
20260903050042 66 0 0.0 0.0 0.00 0.00 0.00 85 1016.0
20260903045520 66 0 0.0 0.0 0.00 0.00 0.00 86 1015.9
20260903045019 66 0 0.0 0.0 0.00 0.00 0.00 85 1015.9
20260903044539 66 0 0.0 0.0 0.00 0.00 0.00 85 1015.9
20260903044018 66 0 0.0 0.0 0.00 0.00 0.00 85 1015.8
20260903043522 66 0 0.0 0.0 0.00 0.00 0.00 85 1015.9
20260903043042 66 0 0.0 0.0 0.00 0.00 0.00 85 1015.9
20260903042518 67 0 0.0 0.0 0.00 0.00 0.00 85 1015.9
20260903042022 67 0 0.0 0.0 0.00 0.00 0.00 84 1015.8
20260903041541 67 0 0.0 0.0 0.00 0.00 0.00 84 1015.8
20260903041017 67 0 0.0 0.0 0.00 0.00 0.00 84 1015.7
20260903040520 68 0 0.0 0.0 0.00 0.00 0.00 83 1015.7
20260903040041 68 0 0.0 0.0 0.00 0.00 0.00 83 1015.6
20260903035519 68 0 0.0 0.0 0.00 0.00 0.00 83 1015.5
20260903035023 68 0 0.0 1.0 0.00 0.00 0.00 83 1015.5
20260903034539 68 0 0.0 2.0 0.00 0.00 0.00 83 1015.4
20260903034022 68 0 0.0 2.0 0.00 0.00 0.00 83 1015.3
20260903033524 68 168 0.0 2.0 0.00 0.00 0.00 83 1015.3
20260903033048 68 0 0.0 1.0 0.00 0.00 0.00 84 1015.3
20260903032519 68 0 0.0 0.0 0.00 0.00 0.00 84 1015.4
20260903032020 68 0 0.0 1.0 0.00 0.00 0.00 84 1015.2
20260903031546 68 0 0.0 1.0 0.00 0.00 0.00 84 1015.2
20260903031022 68 0 0.0 1.0 0.00 0.00 0.00 84 1015.1
20260903030520 68 0 0.0 0.0 0.00 0.00 0.00 84 1015.0
20260903030107 68 0 0.0 0.0 0.00 0.00 0.00 84 1015.0
20260903025525 68 0 0.0 0.0 0.00 0.00 0.00 83 1014.9
20260903025020 68 0 0.0 0.0 0.00 0.00 0.00 83 1015.0
20260903024540 68 0 0.0 0.0 0.00 0.00 0.00 83 1014.9
20260903024019 68 0 0.0 1.0 0.00 0.00 0.00 83 1014.9
20260903023517 68 0 0.0 1.0 0.00 0.00 0.00 82 1014.8
20260903023039 69 0 0.0 2.0 0.00 0.00 0.00 82 1014.9
20260903022519 69 0 0.0 2.0 0.00 0.00 0.00 83 1015.0
20260903022018 69 0 0.0 0.0 0.00 0.00 0.00 83 1015.0
20260903021540 69 0 0.0 0.0 0.00 0.00 0.00 82 1015.1
20260903021021 69 0 0.0 3.0 0.00 0.00 0.00 82 1015.2
20260903020521 69 0 0.0 3.0 0.00 0.00 0.00 82 1015.2
20260903020037 69 102 0.0 1.0 0.00 0.00 0.00 82 1015.2
20260903015518 69 0 0.0 2.0 0.00 0.00 0.00 82 1015.2
20260903015019 69 0 0.0 3.0 0.00 0.00 0.00 81 1015.2
20260903014539 69 0 0.0 3.0 0.00 0.00 0.00 81 1015.1
20260903014021 69 0 0.0 3.0 0.00 0.00 0.00 81 1015.1
20260903013521 69 0 0.0 2.0 0.00 0.00 0.00 81 1015.1
20260903013042 69 0 0.0 2.0 0.00 0.00 0.00 81 1014.9
20260903012518 69 0 0.0 4.0 0.00 0.00 0.00 81 1014.9
20260903012017 69 0 0.0 4.0 0.00 0.00 0.00 80 1014.8
20260903011550 70 0 0.0 2.0 0.00 0.00 0.00 79 1014.9
20260903011017 70 49 0.0 2.0 0.00 0.00 0.00 79 1014.9
20260903010520 70 0 0.0 4.0 0.00 0.00 0.00 78 1015.0
20260903010041 70 47 0.0 4.0 0.00 0.00 0.00 77 1015.0
20260903005522 70 254 0.0 4.0 0.00 0.00 0.00 77 1015.0
20260903005024 71 10 1.0 4.0 0.00 0.00 0.00 77 1014.9
20260903004541 71 0 1.0 4.0 0.00 0.00 0.00 76 1014.9
20260903004018 71 0 0.0 4.0 0.00 0.00 0.00 75 1014.9
20260903003518 71 56 1.0 4.0 0.00 0.00 0.00 76 1014.9
20260903003041 71 0 1.0 4.0 0.00 0.00 0.00 75 1014.9
20260903002517 71 0 0.0 4.0 0.00 0.00 0.00 74 1014.8
20260903002018 71 24 0.0 5.0 0.00 0.00 0.00 74 1014.8
20260903001539 71 37 0.0 5.0 0.00 0.00 0.00 73 1014.7
20260903001018 72 35 1.0 5.0 0.00 0.00 0.00 73 1014.9
20260903000518 72 67 0.0 5.0 0.00 0.00 0.00 73 1014.8
20260903000041 72 330 1.0 5.0 0.00 0.00 0.00 73 1014.8
20260902235520 72 349 2.0 5.0 0.00 0.00 0.00 73 1014.8
20260902235022 72 19 1.0 6.0 0.00 0.00 0.00 74 1014.9
20260902234542 72 228 2.0 7.0 0.00 0.00 0.00 73 1015.0
20260902234017 72 114 2.0 7.0 0.00 0.00 0.00 73 1015.0
20260902233522 73 0 1.0 7.0 0.00 0.00 0.00 73 1015.1
20260902233041 73 303 1.0 7.0 0.00 0.00 0.00 74 1015.1
20260902232524 73 352 1.0 6.0 0.00 0.00 0.00 72 1015.3
20260902232023 73 71 1.0 6.0 0.00 0.00 0.00 72 1015.2
20260902231551 74 360 1.0 6.0 0.00 0.00 0.00 72 1015.3
20260902231019 73 101 2.0 6.0 0.00 0.00 0.00 72 1015.4
20260902230518 74 15 1.0 8.0 0.00 0.00 0.00 73 1015.4
20260902230042 74 60 3.0 9.0 0.00 0.00 0.00 71 1015.5
20260902225520 74 65 1.0 9.0 0.00 0.00 0.00 71 1015.5
20260902225021 74 267 2.0 9.0 0.00 0.00 0.00 70 1015.5
20260902224552 75 74 1.0 8.0 0.00 0.00 0.00 69 1015.5
20260902224024 75 150 2.0 8.0 0.00 0.00 0.00 70 1015.5
20260902223519 75 226 2.0 8.0 0.00 0.00 0.00 70 1015.5
20260902223051 75 42 2.0 8.0 0.00 0.00 0.00 70 1015.5
20260902222553 76 68 1.0 6.0 0.00 0.00 0.00 70 1015.6
20260902222023 76 352 2.0 7.0 0.00 0.00 0.00 69 1015.6
20260902221554 75 62 2.0 8.0 0.00 0.00 0.00 69 1015.7
20260902221017 75 63 1.0 9.0 0.00 0.00 0.00 69 1015.7
20260902220519 74 171 2.0 9.0 0.00 0.00 0.00 70 1015.6
20260902220054 76 360 2.0 6.0 0.00 0.00 0.00 69 1015.7
20260902215518 75 100 2.0 8.0 0.00 0.00 0.00 69 1015.8
20260902215021 75 331 2.0 8.0 0.00 0.00 0.00 70 1015.7
20260902214535 76 309 1.0 9.0 0.00 0.00 0.00 69 1015.7
20260902214020 76 344 2.0 9.0 0.00 0.00 0.00 69 1015.9
20260902213518 75 352 1.0 10.0 0.00 0.00 0.00 70 1015.9
20260902213041 75 117 3.0 10.0 0.00 0.00 0.00 68 1015.9
20260902212519 75 67 2.0 7.0 0.00 0.00 0.00 69 1016.0
20260902212018 75 0 2.0 8.0 0.00 0.00 0.00 70 1015.8
20260902211540 76 157 3.0 8.0 0.00 0.00 0.00 67 1016.0
20260902211022 76 23 2.0 7.0 0.00 0.00 0.00 69 1016.1
20260902210519 76 314 1.0 8.0 0.00 0.00 0.00 68 1016.0
20260902210047 75 316 3.0 8.0 0.00 0.00 0.00 69 1015.9
20260902205522 76 22 3.0 7.0 0.00 0.00 0.00 68 1015.9
20260902205019 76 67 2.0 7.0 0.00 0.00 0.00 69 1016.0
20260902204548 76 28 2.0 11.0 0.00 0.00 0.00 69 1016.0
20260902204017 76 118 2.0 11.0 0.00 0.00 0.00 70 1016.1
20260902203520 76 101 2.0 7.0 0.00 0.00 0.00 70 1016.0
20260902203044 75 15 2.0 7.0 0.00 0.00 0.00 71 1016.2
20260902202520 75 38 3.0 10.0 0.00 0.00 0.00 70 1016.1
20260902202020 76 40 3.0 10.0 0.00 0.00 0.00 70 1016.3
20260902201548 76 150 2.0 7.0 0.00 0.00 0.00 70 1016.3
20260902201017 76 0 2.0 6.0 0.00 0.00 0.00 70 1016.3
20260902200521 75 113 1.0 7.0 0.00 0.00 0.00 71 1016.4
20260902200041 75 103 2.0 7.0 0.00 0.00 0.00 71 1016.4
20260902195521 76 19 1.0 10.0 0.00 0.00 0.00 71 1016.5
20260902195020 76 13 2.0 10.0 0.00 0.00 0.00 70 1016.6
20260902194540 75 59 2.0 10.0 0.00 0.00 0.00 71 1016.6
20260902194020 76 128 2.0 7.0 0.00 0.00 0.00 70 1016.7
20260902193521 75 146 2.0 9.0 0.00 0.00 0.00 72 1016.7
20260902193045 74 74 2.0 9.0 0.00 0.00 0.00 73 1016.7
20260902192518 74 0 2.0 9.0 0.00 0.00 0.00 73 1016.8
20260902192019 75 138 3.0 7.0 0.00 0.00 0.00 72 1016.8
20260902191542 74 21 2.0 7.0 0.00 0.00 0.00 75 1016.8
20260902191019 73 125 2.0 7.0 0.00 0.00 0.00 74 1016.7
20260902190520 74 133 1.0 6.0 0.00 0.00 0.00 72 1016.8
20260902190042 74 105 1.0 6.0 0.00 0.00 0.00 74 1016.7
20260902185517 74 123 2.0 6.0 0.00 0.00 0.00 71 1016.8
20260902185020 75 104 2.0 8.0 0.00 0.00 0.00 72 1017.0
20260902184545 74 98 1.0 8.0 0.00 0.00 0.00 74 1017.0
20260902184022 74 88 3.0 7.0 0.00 0.00 0.00 73 1017.0
20260902183523 75 150 1.0 7.0 0.00 0.00 0.00 73 1017.1
20260902183047 75 94 2.0 8.0 0.00 0.00 0.00 71 1017.1